TimeEDT,TemperatureF,Dew PointF,Humidity,Sea Level PressureIn,VisibilityMPH,Wind Direction,Wind SpeedMPH,Gust SpeedMPH,PrecipitationIn,Events,Conditions,WindDirDegrees,DateUTC
12:53 AM,25.0,19.0,78,30.04,10.0,Calm,Calm,-,N/A,,Clear,0,2013-03-23 04:53:00
1:53 AM,24.1,19.0,81,30.05,10.0,Calm,Calm,-,N/A,,Clear,0,2013-03-23 05:53:00
2:53 AM,24.1,19.0,81,30.04,10.0,Calm,Calm,-,N/A,,Clear,0,2013-03-23 06:53:00
3:53 AM,23.0,18.0,81,30.03,10.0,Calm,Calm,-,N/A,,Clear,0,2013-03-23 07:53:00
4:53 AM,21.9,17.1,82,30.03,9.0,Calm,Calm,-,N/A,,Clear,0,2013-03-23 08:53:00
5:53 AM,21.0,17.1,85,30.03,9.0,Calm,Calm,-,N/A,,Clear,0,2013-03-23 09:53:00
6:53 AM,19.9,16.0,85,30.04,8.0,Calm,Calm,-,N/A,,Clear,0,2013-03-23 10:53:00
7:53 AM,21.0,17.1,85,30.05,7.0,Calm,Calm,-,N/A,,Clear,0,2013-03-23 11:53:00
8:53 AM,26.1,21.0,81,30.08,7.0,Calm,Calm,-,N/A,,Clear,0,2013-03-23 12:53:00
9:53 AM,32.0,23.0,69,30.09,8.0,Calm,Calm,-,N/A,,Clear,0,2013-03-23 13:53:00
10:53 AM,37.0,24.1,59,30.08,8.0,Calm,Calm,-,N/A,,Clear,0,2013-03-23 14:53:00
11:53 AM,39.9,21.0,47,30.07,10.0,WNW,8.1,-,N/A,,Clear,290,2013-03-23 15:53:00
12:53 PM,41.0,21.0,45,30.06,10.0,NW,11.5,16.1,N/A,,Clear,320,2013-03-23 16:53:00
1:53 PM,43.0,21.9,43,30.06,10.0,Variable,5.8,18.4,N/A,,Clear,0,2013-03-23 17:53:00
2:53 PM,44.1,21.0,40,30.04,10.0,WSW,6.9,-,N/A,,Clear,240,2013-03-23 18:53:00
3:53 PM,46.0,21.0,37,30.03,10.0,NW,9.2,-,N/A,,Clear,310,2013-03-23 19:53:00
4:53 PM,46.9,21.9,37,30.04,10.0,NW,6.9,-,N/A,,Clear,310,2013-03-23 20:53:00
5:53 PM,46.0,21.9,39,30.04,10.0,North,6.9,-,N/A,,Clear,350,2013-03-23 21:53:00
6:53 PM,44.1,21.9,42,30.02,10.0,North,8.1,-,N/A,,Clear,10,2013-03-23 22:53:00
7:53 PM,41.0,21.9,47,30.04,10.0,North,4.6,-,N/A,,Clear,360,2013-03-23 23:53:00
8:53 PM,37.0,21.9,54,30.04,10.0,NNE,4.6,-,N/A,,Clear,30,2013-03-24 00:53:00
9:53 PM,36.0,23.0,59,30.06,10.0,NNE,3.5,-,N/A,,Clear,20,2013-03-24 01:53:00
10:53 PM,34.0,21.9,61,30.05,10.0,North,3.5,-,N/A,,Clear,360,2013-03-24 02:53:00
11:53 PM,33.1,21.9,64,30.01,10.0,NE,6.9,-,N/A,,Clear,40,2013-03-24 03:53:00